Regional Weather Roundup
Issued by NWS Raleigh/Durham, NC

Home | Current Version | Previous Version | Text Only | Print | Product List | Glossary On
Versions: 1 2 3 4 5 6 7 8 9 10 11 12 13 14 15 16 17 18 19 20 21 22 23 24 25 26 27 28 29 30 31 32 33 34 35 36 37 38 39 40 41 42 43 44 45 46 47 48 49 50
000
ASUS42 KRAH 011610
RWRRAH
NORTH CAROLINA WEATHER ROUNDUP
NATIONAL WEATHER SERVICE RALEIGH NC
1200 PM EDT SAT AUG 01 2015

NOTE: "FAIR" INDICATES FEW OR NO CLOUDS BELOW 12,000 FEET WITH NO
SIGNIFICANT WEATHER AND/OR OBSTRUCTIONS TO VISIBILITY.

NCZ001-053-055-056-065-067-011700-
WESTERN NORTH CAROLINA

CITY           SKY/WX    TMP DP  RH WIND       PRES   REMARKS
ASHEVILLE      SUNNY     82  53  36 NW18G24   30.09S
JEFFERSON      SUNNY     74  47  37 NW10      30.12S
MORGANTON      SUNNY     86  55  34 N8        30.06F
HICKORY        SUNNY     86  55  34 NW5       30.01F
RUTHERFORDTON  SUNNY     85  55  35 N6        30.02F
MOUNT AIRY     SUNNY     85  57  37 NW12      30.03S
BOONE          SUNNY     74  48  40 N10G17    30.14R
$$

NCZ021-022-025-041-071-084-088-011700-
CENTRAL NORTH CAROLINA

CITY           SKY/WX    TMP DP  RH WIND       PRES   REMARKS
CHARLOTTE      MOSUNNY   89  53  29 N8        30.00S
GREENSBORO     MOSUNNY   85  57  38 N6        29.99S
WINSTON-SALEM  SUNNY     84  62  47 N6        30.01S
RALEIGH-DURHAM MOSUNNY   87  61  41 CALM      29.97S
FORT BRAGG     SUNNY     89  59  36 VRB2      29.94S
FAYETTEVILLE   SUNNY     89  59  36 NE6       29.95S
BURLINGTON     SUNNY     88  60  38 VRB5      29.97F
LAURINBURG     MOSUNNY   91  57  31 MISG      29.96S
$$

NCZ011-015-027-028-043-044-047-080-103-011700-
NORTHEASTERN NORTH CAROLINA

CITY           SKY/WX    TMP DP  RH WIND       PRES   REMARKS
ROCKY MT-WILSO SUNNY     91  59  33 NE5       29.94F
GREENVILLE     MOSUNNY   88  64  45 N6        29.95F
WASHINGTON     MOSUNNY   86  71  60 CALM      29.94S
ELIZABETH CITY SUNNY     87  68  52 SW5       29.93F
MANTEO         CLOUDY    83  73  70 S15       29.95S
CAPE HATTERAS  CLOUDY    82  72  71 S15       29.95S
$$

NCZ078-087-090-091-093-098-101-011700-
SOUTHEASTERN NORTH CAROLINA

CITY           SKY/WX    TMP DP  RH WIND       PRES   REMARKS
LUMBERTON      MOSUNNY   91  62  37 NE5       29.95R
GOLDSBORO      SUNNY     88  70  54 VRB1      29.93S
KINSTON        SUNNY     88  63  42 CALM      29.95S
KENANSVILLE    MOSUNNY  N/A N/A N/A SE3       29.96R
NEW BERN       MOSUNNY   87  74  64 CALM      29.94S HX  95
CHERRY POINT   PTSUNNY   84  76  76 SW5       29.94F
BEAUFORT       PTSUNNY   83  76  79 SW9       29.94S
JACKSONVILLE   MOSUNNY   86  74  67 SW5       29.94S
WILMINGTON     PTSUNNY   85  75  72 SE5       29.94S
$$



USA.gov is the U.S. government's official web portal to all federal, state and local government web resources and services.